Location: Hookston
(37.9413°N, 122.0527°W)
Time: 02:08:18
(UTC+00:00)

Envisat - Visible Passes

Search period start: 14 July 2024 00:00
Search period end: 24 July 2024 00:00
Orbit: 762 x 764 km, 98.3° (Epoch: 13 July)

Date Brightness Start Highest point End Pass type
(mag) Time Alt. Az. Time Alt. Az. Time Alt. Az.
14 Jul 4.6 10:34:37 10° NE 10:38:59 28° E 10:42:37 13° SSE visible
14 Jul 4.0 12:13:29 10° N 12:17:53 30° WNW 12:22:15 10° SW visible
15 Jul 5.5 09:59:26 10° ENE 10:01:16 12° E 10:03:06 10° ESE visible
15 Jul 3.0 11:35:38 10° N 11:40:41 70° WNW 11:44:53 15° SSW visible
16 Jul 3.7 10:58:22 10° NNE 11:03:18 50° E 11:07:00 17° S visible
17 Jul 5.0 10:21:53 10° NE 10:25:43 21° E 10:29:08 12° SE visible
17 Jul 3.6 12:00:04 10° N 12:04:47 40° WNW 12:09:17 11° SW visible
18 Jul 3.0 11:22:26 10° NNE 11:27:32 87° ESE 11:31:24 18° SSW visible
19 Jul 4.2 10:45:23 10° NNE 10:50:04 37° E 10:53:31 17° SSE visible
19 Jul 4.3 12:24:48 10° NNW 12:28:48 24° WNW 12:32:47 10° WSW visible
20 Jul 5.4 10:09:23 10° NE 10:12:25 16° E 10:15:25 10° SE visible
20 Jul 3.2 11:46:44 10° N 11:51:40 54° WNW 11:55:47 15° SSW visible
21 Jul 3.3 11:09:17 10° NNE 11:14:20 65° E 11:17:54 19° S visible
22 Jul 4.6 10:32:30 10° NE 10:36:49 27° E 10:40:00 15° SE visible
22 Jul 3.9 12:11:17 10° N 12:15:43 31° WNW 12:20:08 10° SW visible
23 Jul 5.6 09:57:30 10° ENE 09:59:05 11° E 10:00:40 10° ESE visible
23 Jul 3.0 11:33:27 10° N 11:38:32 73° WNW 11:42:16 18° SSW visible
